logo tempoitalia

Diretta Meteo Lordsburg, Stati Uniti (USA)lunedì 31 agosto ore 00:35

Mappa
Sereno 26 °C Molto Nuvoloso 24 Ore: T.min 22 T.max 33
Ponente Sud-Ovest Km/h 9.3 Punto di rugiada: 11 °C Umidità: 39% Visibilità: 10 Km
Il sole sorge alle: 06:49 Il sole tramonta alle: 19:40
31 Agosto 2026 00:35 tempo osservato: Molto Nuvoloso Molto Nuvoloso 26 39 1018 vento: Nord SO 9.3
31 Agosto 2026 00:15 tempo osservato: Sereno Sereno 27 36 1017 vento: Nord O 11.1
30 Agosto 2026 23:55 tempo osservato: Sereno Sereno 27 36 1017 vento: Nord O 16.7
30 Agosto 2026 23:35 tempo osservato: Sereno Sereno 27 34 1018 vento: Nord O/NO 14.8
30 Agosto 2026 23:15 tempo osservato: Nuvoloso Nuvoloso 27 30 1018 vento: Nord O/NO 14.8
30 Agosto 2026 22:55 tempo osservato: Nuvoloso Nuvoloso 27 30 1018 vento: Nord O/NO 18.5
30 Agosto 2026 22:35 tempo osservato: Sereno Sereno 28 26 1018 vento: Nord O 22.2
30 Agosto 2026 22:15 tempo osservato: Sereno Sereno 28 26 1018 vento: Nord O/SO 11.1
30 Agosto 2026 21:55 tempo osservato: Sereno Sereno 28 28 1017 vento: Nord O 16.7
30 Agosto 2026 21:35 tempo osservato: Sereno Sereno 28 30 1017 vento: Nord O/SO 11.1
30 Agosto 2026 21:15 tempo osservato: Sereno Sereno 28 30 1017 vento: Nord O 9.3
30 Agosto 2026 20:55 tempo osservato: Sereno Sereno 29 30 1017 vento: Nord O 11.1
30 Agosto 2026 20:40 tempo osservato: Sereno Sereno 30 28 1016 vento: Nord O 13
30 Agosto 2026 20:15 tempo osservato: Sereno Sereno 30 28 1016 vento: Nord O/SO 13
30 Agosto 2026 19:55 tempo osservato: Sereno Sereno 31 27 1016 vento: Nord O/SO 11.1
30 Agosto 2026 19:35 tempo osservato: Sereno Sereno 32 25 1016 vento: Nord O/SO 18.5
30 Agosto 2026 19:15 tempo osservato: Sereno Sereno 33 21 1016 vento: Nord O 22.2
30 Agosto 2026 18:55 tempo osservato: Sereno Sereno 33 21 1016 vento: Nord O 16.7
30 Agosto 2026 18:35 tempo osservato: Sereno Sereno 33 21 1016 vento: Nord O/NO 7.4
30 Agosto 2026 18:15 tempo osservato: Sereno Sereno 33 21 1016 vento: Nord O 16.7
30 Agosto 2026 17:55 tempo osservato: Sereno Sereno 33 22 1016 vento: Nord O/NO 25.9
30 Agosto 2026 17:35 tempo osservato: Sereno Sereno 32 25 1016 vento: Nord NO 11.1
30 Agosto 2026 17:15 tempo osservato: Sereno Sereno 32 25 1016 vento: Nord O/NO 25.9
30 Agosto 2026 16:55 tempo osservato: Sereno Sereno 33 24 1016 vento: Nord O/NO 27.8
30 Agosto 2026 16:35 tempo osservato: Temporale nelle vicinanze Temporale nelle vicinanze 33 26 1016 vento: Nord O/NO 16.7
30 Agosto 2026 16:15 tempo osservato: Sereno Sereno 33 26 1017 vento: Nord NO 14.8
30 Agosto 2026 15:55 tempo osservato: Sereno Sereno 33 26 1017 vento: Nord O/NO 20.3
30 Agosto 2026 15:35 tempo osservato: Sereno Sereno 33 26 1017 vento: Nord O 16.7
30 Agosto 2026 15:15 tempo osservato: Sereno Sereno 33 26 1018 vento: Nord O/NO 7.4
30 Agosto 2026 14:55 tempo osservato: Sereno Sereno 33 26 1018 vento: Nord N 20.3
30 Agosto 2026 14:35 tempo osservato: Sereno Sereno 33 24 1018 vento: Nord NO 16.7
30 Agosto 2026 14:15 tempo osservato: Sereno Sereno 33 27 1019 vento: Nord O/NO 18.5
30 Agosto 2026 13:55 tempo osservato: Sereno Sereno 33 26 1019 vento: Nord O/NO 22.2
30 Agosto 2026 13:35 tempo osservato: Sereno Sereno 32 27 1019 vento: Nord O 24
30 Agosto 2026 13:15 tempo osservato: Sereno Sereno 32 27 1020 vento: Nord NO 22.2
30 Agosto 2026 12:55 tempo osservato: Sereno Sereno 32 27 1020 vento: Nord O 25.9
30 Agosto 2026 12:35 tempo osservato: Sereno Sereno 31 29 1020 vento: Nord N/NO 22.2
30 Agosto 2026 12:15 tempo osservato: Sereno Sereno 31 29 1021 vento: Nord O/NO 27.8
30 Agosto 2026 11:55 tempo osservato: Sereno Sereno 31 29 1021 vento: Nord NO 22.2
30 Agosto 2026 11:35 tempo osservato: Sereno Sereno 31 29 1021 vento: Nord O/NO 22.2
30 Agosto 2026 11:15 tempo osservato: Sereno Sereno 30 33 1021 vento: Nord NO 16.7
30 Agosto 2026 10:55 tempo osservato: Sereno Sereno 29 35 1021 vento: Nord NO 14.8
30 Agosto 2026 10:35 tempo osservato: Sereno Sereno 28 37 1022 vento: Nord N/NO 16.7
30 Agosto 2026 10:15 tempo osservato: Sereno Sereno 27 39 1022 vento: Nord NO 14.8
30 Agosto 2026 09:55 tempo osservato: Sereno Sereno 27 39 1021 vento: Nord O/NO 14.8
30 Agosto 2026 09:35 tempo osservato: Sereno Sereno 27 39 1021 vento: Nord O 14.8
30 Agosto 2026 09:15 tempo osservato: Sereno Sereno 26 41 1021 vento: Nord O/SO 14.8
30 Agosto 2026 08:55 tempo osservato: Sereno Sereno 26 41 1021 vento: Nord O/SO 9.3
30 Agosto 2026 08:35 tempo osservato: Sereno Sereno 26 41 1021 vento: Nord O/SO 13
30 Agosto 2026 08:15 tempo osservato: Sereno Sereno 25 47 1021 vento: Nord N 5.5
30 Agosto 2026 07:55 tempo osservato: Sereno Sereno 24 50 1021 vento: Nord SO 9.3
30 Agosto 2026 07:35 tempo osservato: Sereno Sereno 23 53 1021 vento: Nord SO 9.3
30 Agosto 2026 07:15 tempo osservato: Nuvoloso Nuvoloso 22 56 1021 vento: Nord O/SO 11.1
30 Agosto 2026 06:55 tempo osservato: Nuvoloso Nuvoloso 22 53 1021 vento: Nord O/SO 11.1
30 Agosto 2026 06:35 tempo osservato: Sereno Sereno 22 56 1020 vento: Nord O/SO 14.8
30 Agosto 2026 06:15 tempo osservato: Sereno Sereno 22 56 1020 vento: Nord O 18.5
30 Agosto 2026 05:55 tempo osservato: Sereno Sereno 22 56 1020 vento: Nord O 18.5
30 Agosto 2026 05:35 tempo osservato: Nuvoloso Nuvoloso 22 56 1020 vento: Nord O 20.3
30 Agosto 2026 05:15 tempo osservato: Molto Nuvoloso Molto Nuvoloso 22 56 1020 vento: Nord O 20.3
30 Agosto 2026 04:55 tempo osservato: Nuvoloso Nuvoloso 22 56 1020 vento: Nord O 22.2
30 Agosto 2026 04:35 tempo osservato: Sereno Sereno 22 56 1020 vento: Nord O 24
30 Agosto 2026 04:15 tempo osservato: Sereno Sereno 22 56 1020 vento: Nord O 25.9
30 Agosto 2026 03:55 tempo osservato: Sereno Sereno 22 56 1020 vento: Nord O/NO 25.9
30 Agosto 2026 03:35 tempo osservato: Sereno Sereno 23 53 1020 vento: Nord NO 14.8
30 Agosto 2026 03:15 tempo osservato: Sereno Sereno 23 53 1020 vento: Nord NO 16.7
30 Agosto 2026 02:55 tempo osservato: Sereno Sereno 23 53 1020 vento: Nord O 22.2
30 Agosto 2026 02:35 tempo osservato: Sereno Sereno 23 53 1020 vento: Nord NO 11.1
30 Agosto 2026 02:15 tempo osservato: Nuvoloso Nuvoloso 23 53 1020 vento: Nord NO 13
30 Agosto 2026 01:55 tempo osservato: Molto Nuvoloso Molto Nuvoloso 24 50 1020 vento: Nord NO 13
30 Agosto 2026 01:35 tempo osservato: Nuvoloso Nuvoloso 24 50 1020 vento: Nord O/NO 22.2
30 Agosto 2026 01:15 tempo osservato: Molto Nuvoloso Molto Nuvoloso 25 47 1020 vento: Nord NO 25.9
30 Agosto 2026 00:55 tempo osservato: Sereno Sereno 25 44 1019 vento: Nord O/NO 14.8
30 Agosto 2026 00:35 tempo osservato: Sereno Sereno 25 44 1019 vento: Nord O/NO 18.5